Temp
74 71 71 71 71 72 72 73 74 74 73 72 72 71 71 71 71 72 70 70 69 69
74 74 73 74 74 74 74 75 74 73 72 71 72 72 72 71 71 70 69 69 69 69
74 74 72 72 73 72 72 72 71 71 71 71 71 71 72 70 68 66 65 65 65 63
72 72 72 71 71 70 70 70 70 70 69 69 68 69 68 66 67 67 65 64 61 61
70 71 70 70 69 69 68 67 67 67 66 66 66 65 65 65 64 63 62 60 60 60
69 69 68 67 67 67 66 65 64 64 64 64 65 66 66 65 62 62 61 60 60 59
67 67 67 66 65 64 63 62 62 62 62 62 62 63 64 63 61 60 60 60 61 61
67 67 66 64 63 62 62 61 60 60 60 62 63 65 60 60 59 58 58 58 60 62
66 65 64 63 62 61 60 59 59 59 60 61 64 67 67 62 58 58 57 56 57 60
65 64 62 61 61 60 58 57 57 57 59 59 61 65 66 65 55 54 54 54 56 60
64 63 61 61 60 58 58 57 56 56 57 58 61 64 64 63 53 52 52 53 53 54
63 62 61 60 59 58 58 56 55 55 56 57 58 62 62 58 54 53 53 54 55 55
63 62 61 60 60 58 57 55 55 54 54 58 58 61 61 57 55 53 54 54 55 62
63 63 62 61 58 57 55 52 51 53 52 55 59 59 59 59 55 55 54 54 54 55
MSLP
1017.42 1017.71 1017.96 1017.92 1017.53 1017.25 1017.11 1016.86 1016.58 1016.66 1016.63 1016.92 1017.34 1017.22 1017.22 1016.92 1017.24 1017.56 1017.72 1017.79 1017.86 1017.86
1017.19 1017.17 1017.14 1017.05 1016.92 1016.92 1016.92 1016.88 1016.69 1016.67 1016.83 1016.75 1016.77 1016.86 1017.08 1017.41 1017.95 1018.05 1018.19 1018.29 1018.31 1018.33
1016.73 1016.99 1017.08 1017.04 1016.84 1016.78 1016.86 1016.76 1016.84 1016.74 1016.95 1017.20 1017.26 1017.19 1017.56 1018.15 1018.59 1018.60 1018.90 1018.94 1018.85 1018.96
1016.90 1016.91 1016.95 1017.11 1017.11 1017.33 1017.41 1017.39 1017.19 1017.49 1017.88 1017.97 1018.05 1018.24 1018.51 1018.99 1019.16 1019.03 1019.38 1019.41 1019.34 1019.47
1016.95 1017.02 1017.20 1017.51 1017.67 1017.85 1017.91 1018.03 1018.12 1018.48 1018.72 1018.77 1018.82 1018.97 1019.23 1019.52 1019.76 1019.88 1020.00 1020.19 1020.04 1019.88
1017.06 1017.42 1017.77 1018.03 1018.15 1018.56 1018.68 1018.77 1018.87 1019.04 1019.23 1019.33 1019.36 1019.43 1019.72 1020.00 1020.37 1020.59 1020.78 1020.82 1020.61 1020.54
1017.52 1017.89 1018.25 1018.53 1018.88 1019.17 1019.25 1019.29 1019.49 1019.67 1019.66 1019.69 1019.75 1019.99 1020.36 1020.66 1021.01 1021.30 1021.39 1021.22 1021.08 1021.02
1017.83 1018.28 1018.72 1019.13 1019.40 1019.46 1019.69 1019.97 1020.17 1020.36 1020.40 1020.37 1020.41 1020.55 1020.65 1021.00 1021.46 1021.68 1021.77 1021.80 1021.62 1021.34
1018.06 1018.56 1019.07 1019.51 1019.78 1019.98 1020.27 1020.59 1020.80 1020.85 1020.86 1021.00 1021.03 1020.80 1021.01 1021.37 1021.82 1022.12 1022.36 1022.39 1022.14 1021.93
1018.19 1018.76 1019.33 1019.75 1020.13 1020.57 1020.92 1021.08 1021.24 1021.45 1021.48 1021.55 1021.51 1021.41 1021.53 1021.81 1022.38 1022.68 1022.85 1022.88 1022.67 1022.32
1018.34 1019.02 1019.58 1020.01 1020.46 1020.92 1021.19 1021.39 1021.66 1021.85 1021.90 1021.90 1021.88 1021.83 1022.05 1022.40 1023.02 1023.18 1023.43 1023.48 1023.23 1022.88
1018.44 1019.13 1019.70 1020.22 1020.68 1021.00 1021.39 1021.78 1021.92 1021.97 1022.11 1022.19 1022.27 1022.28 1022.47 1022.84 1023.24 1023.52 1023.70 1023.60 1023.28 1023.09
1018.44 1019.03 1019.64 1020.09 1020.47 1020.96 1021.45 1021.95 1022.26 1022.42 1022.39 1022.35 1022.56 1022.68 1022.89 1023.28 1023.41 1023.70 1023.64 1023.42 1023.26 1022.79
1018.37 1018.96 1019.43 1020.07 1020.67 1021.11 1021.71 1022.36 1022.92 1023.03 1022.91 1022.72 1022.74 1023.05 1023.24 1023.34 1023.39 1023.53 1023.74 1023.75 1023.68 1023.36
Wind_Speed
6 4 5 6 6 5 3 3 3 3 4 2 1 2 3 4 4 4 4 6 4 3
6 6 5 7 5 2 2 2 2 2 1 4 4 4 5 6 6 7 6 6 6 4
4 4 3 2 1 4 4 6 5 7 7 6 6 6 8 7 7 8 6 5 7 6
6 5 4 4 5 5 5 5 8 8 6 6 7 7 8 7 7 11 8 7 7 6
7 6 5 6 6 5 6 6 6 6 6 6 8 7 8 9 9 9 9 6 7 8
8 7 6 6 7 5 6 6 6 6 6 6 6 8 8 10 8 7 6 5 6 6
8 8 7 7 6 6 5 7 6 6 7 7 7 7 8 8 7 6 6 6 6 5
9 9 8 8 6 6 7 6 6 6 6 6 7 5 7 7 6 6 6 6 6 6
10 9 8 8 7 7 7 6 6 6 7 7 5 11 12 8 6 6 6 6 6 6
10 10 8 8 8 7 6 6 6 6 6 6 6 11 11 12 6 6 6 6 5 6
10 10 9 8 8 7 5 6 6 6 6 6 5 11 11 12 7 6 6 5 5 6
11 11 10 10 9 6 6 5 3 4 6 6 4 7 10 9 6 6 5 3 3 5
10 11 10 9 8 4 4 5 4 5 4 8 7 6 8 6 4 5 3 2 4 8
9 9 9 8 4 6 6 6 5 5 4 6 6 5 7 5 3 4 3 3 4 4
Wind_Direction
210 183 214 222 231 249 246 252 190 237 245 189 102 15 289 25 18 53 56 45 55 62
190 207 229 247 249 230 214 270 342 58 31 353 16 45 62 61 56 57 45 39 43 36
186 158 190 152 307 66 49 54 53 59 57 57 56 63 73 70 59 67 40 39 51 33
137 140 128 99 58 62 70 65 62 60 57 57 61 59 75 72 71 73 65 52 58 45
137 126 108 97 92 64 67 57 70 68 70 70 74 69 80 83 71 72 62 44 49 37
125 119 107 100 88 85 84 73 66 74 73 72 74 79 74 79 72 64 60 54 55 39
124 121 114 101 96 95 88 82 72 59 65 64 68 68 81 81 71 62 53 49 48 44
122 116 115 111 107 92 85 85 84 87 71 68 76 86 88 86 82 77 62 44 35 39
124 124 123 117 110 102 91 87 89 78 78 70 77 91 99 100 93 78 70 57 37 32
129 126 123 120 116 114 112 113 99 99 100 91 87 99 96 93 79 83 74 66 56 53
132 132 133 131 133 127 128 120 118 115 113 108 102 111 105 102 91 79 69 71 70 70
146 145 145 143 142 137 125 118 118 132 138 138 146 134 118 110 96 91 80 69 66 68
149 150 148 148 139 119 123 129 130 120 126 169 158 170 125 115 118 94 86 60 32 22
151 148 147 130 125 133 120 110 102 92 55 100 149 147 123 133 112 118 84 47 5 355